| time (UTC) | temp C | wind direction | speed KPH | gust KPH | rain 1hr cm | rain 24hr cm | rain mn cm | humidity % | barometer mb |
| 20260509073503 | 16 | 30 | 14.5 | 0.0 | 0.00 | 0.00 | 0.00 | 94 | 1017.0 |
| 20260509070502 | 15 | 20 | 12.9 | 0.0 | 0.00 | 0.00 | 0.00 | ||
| 20260509063502 | 13 | 290 | 4.8 | 0.0 | 0.00 | 0.00 | 0.00 | 100 | 1017.0 |
| 20260509060502 | 13 | 310 | 8.0 | 0.0 | 0.00 | 0.00 | 0.00 | 94 | 1017.0 |
| 20260509053503 | 13 | 330 | 8.0 | 0.0 | 0.00 | 0.00 | 0.00 | 94 | 1017.0 |
| 20260509050503 | 13 | 320 | 9.7 | 0.0 | 0.00 | 0.00 | 0.00 | 94 | 1017.0 |
| 20260509043502 | 13 | 320 | 9.7 | 0.0 | 0.00 | 0.00 | 0.00 | 100 | 1016.0 |
| 20260509040501 | 13 | 310 | 8.0 | 0.0 | 0.00 | 0.00 | 0.00 | 94 | 1016.0 |
| 20260509033502 | 13 | 310 | 4.8 | 0.0 | 0.00 | 0.00 | 0.00 | 94 | 1016.0 |
| 20260509030502 | 13 | 280 | 4.8 | 0.0 | 0.00 | 0.00 | 0.00 | 94 | 1016.0 |
| 20260509023502 | 12 | 290 | 3.2 | 0.0 | 0.00 | 0.00 | 0.00 | 100 | 1016.0 |
| 20260509020502 | 12 | 120 | 1.6 | 0.0 | 0.00 | 0.00 | 0.00 | 94 | 1016.0 |
| 20260509013501 | 12 | 130 | 3.2 | 0.0 | 0.00 | 0.00 | 0.00 | 94 | 1016.0 |
| 20260509010502 | 12 | 1.6 | 0.0 | 0.00 | 0.00 | 0.00 | 100 | 1016.0 | |
| 20260509003502 | 12 | 320 | 4.8 | 0.0 | 0.00 | 0.00 | 0.00 | 100 | 1016.0 |
| 20260509000503 | 12 | 270 | 3.2 | 0.0 | 0.00 | 0.00 | 0.00 | 100 | 1016.0 |
| 20260508233502 | 12 | 310 | 3.2 | 0.0 | 0.00 | 0.00 | 0.00 | 100 | 1016.0 |
| 20260508230503 | 12 | 290 | 1.6 | 0.0 | 0.00 | 0.00 | 0.00 | 94 | 1017.0 |
| 20260508223502 | 13 | 290 | 1.6 | 0.0 | 0.00 | 0.00 | 0.00 | 94 | 1016.0 |
| 20260508220502 | 13 | 3.2 | 0.0 | 0.00 | 0.00 | 0.00 | 94 | 1017.0 | |
| 20260508213503 | 13 | 190 | 1.6 | 0.0 | 0.00 | 0.00 | 0.00 | 94 | 1016.0 |
| 20260508210502 | 13 | 180 | 4.8 | 0.0 | 0.00 | 0.00 | 0.00 | 94 | 1016.0 |
| 20260508203503 | 13 | 330 | 12.9 | 0.0 | 0.00 | 0.00 | 0.00 | 94 | 1016.0 |
| 20260508200502 | 13 | 1.6 | 0.0 | 0.00 | 0.00 | 0.00 | 94 | 1016.0 | |
| 20260508193502 | 15 | 70 | 4.8 | 0.0 | 0.00 | 0.00 | 0.00 | 88 | 1016.0 |
| 20260508190501 | 15 | 60 | 4.8 | 0.0 | 0.00 | 0.00 | 0.00 | ||
| 20260508183503 | 15 | 360 | 8.0 | 0.0 | 0.00 | 0.00 | 0.00 | 94 | 1016.0 |
| 20260508180502 | 15 | 340 | 9.7 | 0.0 | 0.00 | 0.00 | 0.00 | 94 | 1016.0 |
| 20260508173502 | 15 | 110 | 4.8 | 0.0 | 0.00 | 0.00 | 0.00 | 94 | 1015.0 |
| 20260508170502 | 16 | 90 | 8.0 | 0.0 | 0.00 | 0.00 | 0.00 | 88 | 1015.0 |
| 20260508163502 | 16 | 80 | 9.7 | 0.0 | 0.00 | 0.00 | 0.00 | 94 | 1015.0 |
| 20260508160502 | 16 | 150 | 8.0 | 0.0 | 0.00 | 0.00 | 0.00 | 88 | 1015.0 |
| 20260508153505 | 16 | 150 | 9.7 | 0.0 | 0.00 | 0.00 | 0.00 | 94 | 1015.0 |
| 20260508150502 | -17 | 0.0 | 0.0 | 0.00 | 0.00 | 0.00 | |||
| 20260508143502 | 15 | 320 | 17.7 | 0.0 | 0.00 | 0.00 | 0.00 | 88 | 1015.0 |
| 20260508140502 | -17 | 320 | 17.7 | 0.0 | 0.00 | 0.00 | 0.00 | ||
| 20260508133502 | 22 | 120 | 14.5 | 0.0 | 0.00 | 0.00 | 0.00 | 50 | 1014.0 |
| 20260508130502 | 22 | 120 | 14.5 | 0.0 | 0.00 | 0.00 | 0.00 | 50 | 1014.0 |
| 20260508123503 | 22 | 100 | 17.7 | 0.0 | 0.00 | 0.00 | 0.00 | 53 | 1014.0 |
| 20260508120502 | 22 | 100 | 20.9 | 0.0 | 0.00 | 0.00 | 0.00 | 53 | 1014.0 |
| 20260508113502 | 22 | 90 | 20.9 | 0.0 | 0.00 | 0.00 | 0.00 | 57 | 1014.0 |
| 20260508110502 | 22 | 90 | 20.9 | 0.0 | 0.00 | 0.00 | 0.00 | 57 | 1014.0 |
| 20260508103503 | 21 | 100 | 20.9 | 0.0 | 0.00 | 0.00 | 0.00 | 60 | 1015.0 |
| 20260508100502 | 20 | 110 | 14.5 | 0.0 | 0.00 | 0.00 | 0.00 | 64 | 1015.0 |
| 20260508093502 | 18 | 110 | 16.1 | 0.0 | 0.00 | 0.00 | 0.00 | 64 | 1015.0 |
| 20260508090503 | 17 | 140 | 11.3 | 0.0 | 0.00 | 0.00 | 0.00 | 68 | 1015.0 |
| 20260508083502 | 17 | 130 | 8.0 | 0.0 | 0.00 | 0.00 | 0.00 | 73 | 1016.0 |
| 20260508080502 | 16 | 130 | 8.0 | 0.0 | 0.00 | 0.00 | 0.00 | 77 |